Location: Aldenham
(51.6667°N, 0.3500°W)
Time: 13:00:35
(UTC+00:00)

Altair - Pass Details

Date: 16 February 2026
Orbit: 1502 x 1682 km, 47.2° (Epoch: 17 March)

Event Time Altitude Azimuth Distance (km) Brightness Sun altitude
Rises 03:48:20 0° 196° (SSW) 4,624 - -32.0°
Reaches altitude 10° 03:52:03 10° 183° (S) 3,653 - -31.5°
Exits shadow 03:53:16 14° 177° (S) 3,381 9.1 -31.3°
Maximum altitude 03:58:53 24° 134° (SE) 2,739 9.0 -30.5°
Drops below altitude 10° 04:05:52 10° 86° (E) 3,735 10.4 -29.5°
Sets 04:09:41 0° 73° (ENE) 4,750 11.3 -28.9°
